パンスターズ彗星

C/2017 T2 ( PanSTARRS )

English version
Home page
Updated on April 4, 2021

---------------------------------------------------------------------

・ プロフィール

発見日 2017年10月2日
発見光度 19.9等
発見者 Pan-STARRS 1 telescope (Haleakala)

・ 写真集

・ 軌道要素

Epoch 2020 Apr. 21.0 TT = JDT 2458960.5
T 2020 May 4.95059 TT                                   Rudenko
q   1.6151415            (2000.0)            P               Q
z  +0.0002849      Peri.   92.99154     -0.50993856     -0.40637367
                   Node    64.37795     -0.16273911     -0.81988669
e   0.9995398      Incl.   57.23056     +0.84467665     -0.40329425
From 7034 observations 2017 Sept. 15-2021 Feb. 16, mean residual 0".5.
     Nongravitational parameters A1 = +4.28, A2 = -1.5604.

・ 星図

・ 光度変化

        m1 = -4.5 + 5 logΔ + 20.0 log r          [    ,-820]  (              〜2018年 2月 4日)
        m1 =  5.2 + 5 logΔ +  9.5 log r(t + 15)  [-820,   0]  (2018年 2月 4日〜2020年 5月 4日)
        m1 =  4.7 + 5 logΔ + 12.0 log r(t + 15)  [   0,    ]  (2020年 5月 4日〜              )

---------------------------------------------------------------------

軌道要素はM.P.E.C. 2021-F20に掲載されたものです。
星図はステラナビゲータ Ver.10 (アストロアーツ) で作成したものです。
光度グラフはComet for Windowsで作成したものです。

---------------------------------------------------------------------

Copyright(C) Seiichi Yoshida (comet@aerith.net). All rights reserved.